Weather History for K1A6 - August, 2013

Change the Weather History Date:

Saturday, August 31, 2013

  Actual Average (KLOZ) Record (KLOZ)
Temperature  
Mean Temperature 78 °F 73 °F  
Max Temperature 90 °F 84 °F 96 °F (1957)
Min Temperature 67 °F 63 °F 46 °F (1976)
Degree Days  
Heating Degree Days 0 0  
Month to date heating degree days 0  
Since 1 June heating degree days 10  
Since 1 July heating degree days 1  
Cooling Degree Days 13 8  
Month to date cooling degree days 317  
Growing Degree Days 28 (Base 50)    
Moisture  
Dew Point 70 °F    
Average Humidity 84    
Maximum Humidity 100    
Minimum Humidity 50    
Precipitation  
Precipitation 1.86 in 0.11 in 1.29 in (1986)
Month to date precipitation 3.71  
Sea Level Pressure  
Sea Level Pressure 29.95 in    
Wind  
Wind Speed 1 mph (SSW)    
Max Wind Speed 8 mph    
Max Gust Speed 26 mph    
Visibility 7 miles    
Events Rain , Thunderstorm    
T = Trace of Precipitation, MM = Missing Value Source: NWS Daily Summary

Daily Weather History Graph

Daily Weather History Graph

Search for Another Location

Airport or City:

Trip Planner

Search our weather history database for the weather conditions in past years. The results will help you decide how hot, cold, wet, or windy it might be!

Date:

Astronomy

Aug. 31, 2013 Rise Set
Actual Time 6:05 AM CDT 7:04 PM CDT
Civil Twilight 5:39 AM CDT 7:30 PM CDT
Nautical Twilight 5:07 AM CDT 8:01 PM CDT
Astronomical Twilight 4:35 AM CDT 8:34 PM CDT
Moon 1:38 AM CDT (8/31) 3:57 PM CDT (8/31)
Length of Visible Light 13h 51m
Length of Day
12h 58m
Waning Crescent, 21% of the Moon is Illuminated
Aug 31
Waning Crescent
Sep 5
New
Sep 12
First Quarter
Sep 19
Full
Sep 26
Last Quarter

Hourly Weather History & Observations

Time (CDT) Temp. Heat Index Dew Point Humidity Pressure Visibility Wind Dir Wind Speed Gust Speed Precip Events Conditions
12:15 AM 69.8 °F - 68.2 °F 95% 29.97 in 7.0 mi Calm Calm - N/A   Scattered Clouds
12:35 AM 69.8 °F - 68.2 °F 95% 29.97 in 7.0 mi Calm Calm - N/A   Scattered Clouds
12:55 AM 69.3 °F - 68.0 °F 96% 29.97 in 5.0 mi Calm Calm - N/A   Scattered Clouds
1:15 AM 69.1 °F - 68.0 °F 96% 29.97 in 5.0 mi Calm Calm - N/A   Scattered Clouds
1:35 AM 69.3 °F - 68.0 °F 96% 29.97 in 5.0 mi Calm Calm - N/A   Mostly Cloudy
1:55 AM 69.3 °F - 68.0 °F 96% 29.97 in 5.0 mi Calm Calm - N/A   Mostly Cloudy
2:15 AM 68.9 °F - 68.0 °F 97% 29.96 in 5.0 mi Calm Calm - N/A   Scattered Clouds
2:35 AM 68.9 °F - 68.0 °F 97% 29.96 in 5.0 mi Calm Calm - N/A   Clear
2:55 AM 68.5 °F - 67.6 °F 97% 29.96 in 5.0 mi Calm Calm - N/A   Scattered Clouds
3:15 AM 68.4 °F - 67.5 °F 97% 29.96 in 5.0 mi Calm Calm - N/A   Mostly Cloudy
3:35 AM 68.5 °F - 67.8 °F 98% 29.97 in 5.0 mi Calm Calm - N/A   Overcast
3:55 AM 68.9 °F - 68.0 °F 97% 29.96 in 5.0 mi Calm Calm - N/A   Overcast
4:15 AM 68.9 °F - 68.9 °F 100% 29.96 in 1.0 mi North 3.5 mph - 0.12 in Rain Rain
4:35 AM 69.1 °F - 68.9 °F 99% 29.97 in 3.0 mi NW 8.1 mph - 0.13 in   Overcast
4:55 AM 70.2 °F - 70.0 °F 99% 29.96 in 1.8 mi South 3.5 mph - 0.31 in Rain , Thunderstorm Light Thunderstorms and Rain
5:15 AM 70.9 °F - 70.7 °F 99% 29.96 in 3.0 mi NE 5.8 mph - N/A Thunderstorm Mostly Cloudy
5:35 AM 70.9 °F - 70.5 °F 99% 29.97 in 4.0 mi Calm Calm - N/A Thunderstorm Mostly Cloudy
5:55 AM 70.7 °F - 70.5 °F 99% 29.97 in 2.5 mi Calm Calm - N/A Thunderstorm Scattered Clouds
6:15 AM 70.7 °F - 70.3 °F 99% 29.97 in 2.5 mi Calm Calm - N/A   Clear
6:35 AM 70.7 °F - 70.3 °F 99% 29.97 in 1.5 mi Calm Calm - N/A   Mist
6:55 AM 70.7 °F - 70.5 °F 99% 29.98 in 1.2 mi Calm Calm - N/A   Scattered Clouds
7:15 AM 70.9 °F - 70.7 °F 99% 29.99 in 1.5 mi Calm Calm - N/A   Scattered Clouds
7:35 AM 71.6 °F - 70.7 °F 97% 29.99 in 3.0 mi Calm Calm - N/A   Scattered Clouds
7:55 AM 72.0 °F - 71.2 °F 98% 29.99 in 3.0 mi Calm Calm - N/A   Clear
8:15 AM 73.2 °F - 71.4 °F 94% 29.99 in 5.0 mi Calm Calm - N/A   Scattered Clouds
8:35 AM 74.5 °F - 72.0 °F 92% 29.99 in 5.0 mi Calm Calm - N/A   Scattered Clouds
8:55 AM 76.1 °F - 72.9 °F 90% 29.99 in 7.0 mi Calm Calm - N/A   Scattered Clouds
9:15 AM 77.7 °F - 73.0 °F 85% 29.99 in 7.0 mi Calm Calm - N/A   Scattered Clouds
9:35 AM 79.0 °F - 73.4 °F 83% 29.99 in 10.0 mi SSE 4.6 mph - N/A   Scattered Clouds
9:55 AM 79.5 °F - 73.2 °F 81% 29.99 in 10.0 mi Calm Calm - N/A   Mostly Cloudy
10:15 AM 80.4 °F 85.1 °F 73.8 °F 80% 29.99 in 10.0 mi Calm Calm - N/A   Overcast
10:35 AM 81.1 °F 86.4 °F 73.6 °F 78% 29.99 in 10.0 mi East 3.5 mph - N/A   Scattered Clouds
10:55 AM 82.9 °F 89.7 °F 74.3 °F 75% 29.98 in 10.0 mi SSE 4.6 mph - N/A   Scattered Clouds
11:15 AM 82.9 °F 89.7 °F 74.1 °F 75% 29.98 in 10.0 mi Calm Calm - N/A   Scattered Clouds
11:35 AM 82.8 °F 89.0 °F 73.8 °F 74% 29.98 in 10.0 mi Calm Calm - N/A   Overcast
11:55 AM 84.4 °F 92.4 °F 74.8 °F 73% 29.97 in 10.0 mi NE 5.8 mph - N/A   Mostly Cloudy
12:15 PM 85.8 °F 94.2 °F 74.5 °F 69% 29.96 in 10.0 mi ESE 4.6 mph - N/A   Scattered Clouds
12:35 PM 86.0 °F 93.0 °F 72.9 °F 65% 29.95 in 10.0 mi Calm Calm - N/A   Clear
12:55 PM 86.0 °F 94.2 °F 74.1 °F 68% 29.95 in 10.0 mi SSE 5.8 mph - N/A   Scattered Clouds
1:15 PM 86.0 °F 93.4 °F 73.6 °F 66% 29.95 in 10.0 mi South 3.5 mph - N/A   Overcast
1:35 PM 85.6 °F 93.8 °F 74.3 °F 69% 29.94 in 10.0 mi Calm Calm - N/A   Scattered Clouds
1:55 PM 87.1 °F 95.4 °F 73.9 °F 65% 29.92 in 10.0 mi South 4.6 mph - N/A   Clear
2:15 PM 87.8 °F 93.4 °F 70.9 °F 57% 29.91 in 10.0 mi SE 3.5 mph - N/A   Clear
2:35 PM 88.0 °F 94.7 °F 72.0 °F 59% 29.91 in 10.0 mi Calm Calm - N/A   Scattered Clouds
2:55 PM 88.0 °F 95.6 °F 72.9 °F 61% 29.90 in 10.0 mi SSW 4.6 mph - N/A   Mostly Cloudy
3:15 PM 89.1 °F 97.0 °F 73.2 °F 59% 29.90 in 10.0 mi South 3.5 mph - N/A   Scattered Clouds
3:35 PM 89.6 °F 93.9 °F 68.5 °F 50% 29.89 in 10.0 mi WNW 4.6 mph - N/A   Scattered Clouds
3:55 PM 87.1 °F 94.1 °F 72.9 °F 62% 29.87 in 10.0 mi South 3.5 mph - N/A   Scattered Clouds
4:15 PM 87.8 °F 96.1 °F 73.6 °F 63% 29.87 in 10.0 mi South 5.8 mph - N/A   Scattered Clouds
4:35 PM 86.4 °F 93.8 °F 73.4 °F 65% 29.87 in 10.0 mi South 4.6 mph - N/A   Scattered Clouds
4:55 PM 87.4 °F 95.3 °F 73.2 °F 63% 29.87 in 10.0 mi SSW 5.8 mph - N/A   Clear
5:15 PM 86.2 °F 93.4 °F 73.2 °F 65% 29.88 in 10.0 mi South 4.6 mph - N/A   Scattered Clouds
5:35 PM 84.6 °F 91.4 °F 73.4 °F 69% 29.90 in 10.0 mi SW 4.6 mph - N/A   Scattered Clouds
5:55 PM 83.5 °F 88.8 °F 71.8 °F 68% 29.88 in 10.0 mi SSW 5.8 mph - N/A   Scattered Clouds
6:15 PM 82.6 °F 87.1 °F 71.1 °F 68% 29.89 in 10.0 mi Calm Calm - N/A   Mostly Cloudy
6:35 PM 81.5 °F 85.3 °F 70.3 °F 69% 29.90 in 10.0 mi Calm Calm - N/A   Overcast
6:55 PM 80.2 °F 84.2 °F 72.1 °F 76% 29.92 in 10.0 mi Calm Calm - N/A Thunderstorm Mostly Cloudy
7:15 PM 79.9 °F - 71.4 °F 75% 29.92 in 10.0 mi West 3.5 mph - N/A Thunderstorm Mostly Cloudy
7:35 PM 77.0 °F - 68.9 °F 76% 29.96 in 7.0 mi WNW 3.5 mph 21.9 mph 0.01 in Rain , Thunderstorm Thunderstorms and Rain
7:55 PM 69.3 °F - 67.5 °F 94% 30.01 in 0.8 mi West 6.9 mph 26.5 mph 1.19 in Rain , Thunderstorm Heavy Thunderstorms and Rain
8:15 PM 68.9 °F - 66.0 °F 90% 30.00 in 2.0 mi Calm Calm - 0.27 in Rain , Thunderstorm Heavy Thunderstorms and Rain
8:35 PM 67.3 °F - 66.4 °F 97% 29.99 in 7.0 mi Calm Calm - 0.31 in Rain , Thunderstorm Light Thunderstorms and Rain
8:55 PM 68.0 °F - 66.7 °F 96% 29.98 in 5.0 mi Calm Calm - 0.33 in Rain Heavy Rain
9:15 PM 67.1 °F - 66.7 °F 99% 29.92 in 7.0 mi Calm Calm - 0.02 in Rain Light Rain
9:35 PM 67.1 °F - 66.2 °F 97% 29.93 in 10.0 mi Calm Calm - 0.03 in   Light Drizzle
9:55 PM 67.5 °F - 65.3 °F 93% 29.94 in 10.0 mi WSW 4.6 mph - 0.03 in   Clear
10:15 PM 68.0 °F - 65.3 °F 91% 29.95 in 10.0 mi West 5.8 mph - N/A   Clear
10:35 PM 67.5 °F - 65.3 °F 93% 29.94 in 10.0 mi West 4.6 mph - N/A   Clear
10:55 PM 67.3 °F - 66.2 °F 96% 29.96 in 10.0 mi Calm Calm - N/A   Clear
11:15 PM 67.1 °F - 66.4 °F 98% 29.97 in 10.0 mi Calm Calm - N/A   Clear
11:35 PM 67.1 °F - 66.4 °F 98% 29.97 in 10.0 mi Calm Calm - N/A   Clear
11:55 PM 67.1 °F - 66.0 °F 96% 29.97 in 10.0 mi Calm Calm - N/A   Scattered Clouds